Location: Unspecified
(33.2407°S, 0.0000°E)
Time: 03:23:53
(UTC+00:00)

ISS - Visible Passes

Search period start: 25 May 2019 00:00
Search period end: 04 June 2019 00:00
Orbit: 408 x 418 km, 51.6° (Epoch: 25 May)

Date Brightness Start Highest point End Pass type
(mag) Time Alt. Az. Time Alt. Az. Time Alt. Az.
25 May -2.1 04:59:23 27° NNE 05:00:24 33° NE 05:03:30 10° ESE visible
26 May -0.1 04:13:18 10° E 04:13:18 10° E 04:13:21 10° E visible
26 May -3.1 05:46:13 25° W 05:47:31 35° SW 05:50:41 10° SSE visible
27 May -2.0 04:59:43 26° SE 04:59:43 26° SE 05:01:22 10° SE visible
28 May -1.7 05:45:46 15° SSW 05:45:46 15° SSW 05:47:29 10° S visible
